Location: Las Vegas
(36.1750°N, 115.1360°W)
Time: 21:15:44
(UTC-07:00)

ISS - Visible Passes

Search period start: 19 April 2019 00:00
Search period end: 29 April 2019 00:00
Orbit: 408 x 410 km, 51.6° (Epoch: 20 April)

Date Brightness Start Highest point End Pass type
(mag) Time Alt. Az. Time Alt. Az. Time Alt. Az.
25 Apr -1.0 05:03:03 10° SSE 05:04:35 13° SE 05:06:07 10° E visible
27 Apr -2.6 04:56:16 11° SSW 04:59:12 36° SE 05:02:16 10° ENE visible
28 Apr -1.6 04:07:41 17° SSE 04:08:29 18° SE 04:10:50 10° E visible
